Weather in Pyatigorsk

Russia / Stavropol Krai     44˚02′21″N   43˚04′15″E
temp.,
°C
wind,
m/s
gust,
m/s
humid.,
%
clouds,
%
prec.,
mm/h
press.,
hPa
HPBL,
m
30 november, mon
mon3000:00+1˚se1260100 0.0 102530
03:00+1˚se225382 0.0 102528
06:00se236799 0.0 102451
09:00+1˚ese348199 0.0 1024212
12:00+3˚ese468597 0.0 1022445
15:00+2˚ese6108393 0.0 1022706
18:00+3˚ese71288100 0.0 1023708
21:00+1˚ese71193100 0.0 1023684
1 december, tue
tue100:00+1˚ese61195100 0.1 1022613
03:00+1˚ese5996100 0.5 1022486
06:00ese5995100 0.1 1022519
09:00+1˚ese5892100 0.2 1022499
12:00+2˚ese5883100 0.0 1021593
15:00+3˚ese5781100 0.1 1021638
18:00+2˚ese4794100 0.0 1023450
21:00+2˚ese4790100 0.0 1024503
2 december, wed
wed200:00+2˚se489197 0.0 1025436
03:00+1˚se479462 0.0 1025330
06:00+1˚se589540 0.0 1026382
09:00+2˚se589169 0.0 1025445
12:00+3˚ese588193 0.0 1024555
15:00+4˚ese588095 0.0 1024676
18:00+3˚ese5891100 0.1 1026599
21:00+3˚ese5995100 0.1 1026579
3 december, thu
thu300:00+3˚se5992100 0.0 1027597
03:00+2˚ese5892100 0.1 1027471
06:00+2˚ese589390 0.0 1028471
09:00+2˚ese689095 0.0 1028495
12:00+3˚ese5887100 0.0 1027559
15:00+3˚ese5886100 0.0 1026550
18:00+2˚ese589395 0.0 1028417
21:00+2˚ese599394 0.0 1028435
4 december, fri
fri400:00+2˚ese589386 0.0 1028445
03:00+2˚ese589592 0.0 1027401
06:00+2˚ese589497 0.0 1027394
09:00+2˚ese589198 0.0 1027476
12:00+3˚ese5886100 0.0 1026565
15:00+3˚ese5887100 0.0 1025613
18:00+2˚ese5893100 0.0 1026447
21:00+2˚ese4895100 0.0 1026396